Home > Weather > Norderstedt > Past weeks

Flag for Germany Weather for the Past 2 Weeks in Norderstedt, Schleswig-Holstein, Germany

Now
48 °F

Partly cloudy.


Feels Like: 43 °F
Forecast: 43 / 51 °F
Wind: 13 mph from South

Location: Hamburg-Fuhlsbuettel

Current Time: Feb 6, 2016 at 8:25:07 AM

Latest Report: Feb 6, 2016 at 7:50 AM


Visibility: N/A

Pressure: 29.89 "Hg

Humidity: 87%

Dew point: 45 °F

Location of NorderstedtLocation

Historic Weather in Norderstedt — Graph

°F

Norderstedt Temperature Yesterday

Maximum temperature yesterday: 46 °F (at 6:20 PM)
Minimum temperature yesterday: 34 °F (at 12:20 AM)
Average temperature yesterday: 41 °F

High & Low Weather Summary for the Past Weeks

 TemperatureHumidityPressure
High54 °F (Feb 1, 8:20 PM)100% (Jan 22, 7:20 AM)30.45 "Hg (Jan 22, 7:20 AM)
Low19 °F (Jan 22, 8:20 AM)57% (Feb 2, 6:20 PM)29.53 "Hg (Jan 30, 2:20 PM)
Average43 °F87%29.97 "Hg
* Reported Jan 22 7:20 AM — Feb 6 7:20 AM, Norderstedt, Weather by CustomWeather, © 2016

Note: Actual official high and low records may vary slightly from our data, if they occured in-between our weather recording intervals... More about our weather records

Advertising

Norderstedt Weather History for the Previous 24 Hours

 ConditionsComfort  
Time TempWeatherWind HumidityBarometerVisibility
7:20 AM
Sat, Feb 6
48 °FPartly cloudy.12 mph87%29.89 "HgN/A
6:50 AM48 °FPassing clouds.15 mph87%29.89 "HgN/A
6:20 AM48 °FPassing clouds.14 mph87%29.89 "HgN/A
5:50 AM48 °FPassing clouds.13 mph87%29.92 "HgN/A
5:20 AM48 °FPartly cloudy.17 mph87%29.92 "HgN/A
4:50 AM48 °FPartly cloudy.17 mph87%29.92 "HgN/A
4:20 AM48 °FPartly cloudy.15 mph94%29.95 "HgN/A
3:50 AM48 °FPartly cloudy.14 mph94%29.95 "HgN/A
3:20 AM48 °FPartly cloudy.15 mph94%29.95 "Hg4 mi
2:50 AM48 °FPassing clouds.12 mph94%29.98 "Hg4 mi
2:20 AM48 °FPassing clouds.14 mph94%29.98 "Hg4 mi
1:20 AM48 °FDrizzle. Fog.14 mph94%29.98 "Hg2 mi
12:50 AM48 °FDrizzle. Fog.14 mph94%30.01 "Hg2 mi
12:20 AM46 °FDrizzle. Fog.13 mph100%30.01 "Hg1 mi
11:50 PM
Fri, Feb 5
46 °FDrizzle. Fog.10 mph100%30.01 "Hg1 mi
11:20 PM46 °FFog.9 mph100%30.01 "Hg3 mi
10:50 PM46 °FLight rain. Fog.8 mph93%30.04 "Hg3 mi
10:20 PM46 °FLight rain. Passing clouds.7 mph93%30.04 "Hg3 mi
9:50 PM46 °FLight rain. Passing clouds.8 mph93%30.04 "Hg3 mi
9:20 PM46 °FPartly cloudy.9 mph93%30.04 "Hg4 mi
8:50 PM46 °FPartly cloudy.9 mph93%30.04 "Hg4 mi
8:20 PM46 °FPartly cloudy.10 mph93%30.04 "Hg4 mi
7:50 PM46 °FFog.9 mph93%30.04 "Hg3 mi
7:20 PM46 °FPassing clouds.10 mph93%30.04 "Hg4 mi
6:50 PM46 °FPartly cloudy.9 mph93%30.04 "Hg4 mi
6:20 PM46 °FPassing clouds.10 mph93%30.04 "Hg4 mi
5:50 PM45 °FFog.12 mph100%30.04 "Hg3 mi
5:20 PM45 °FFog.12 mph100%30.04 "Hg2 mi
4:50 PM45 °FFog.12 mph93%30.04 "Hg2 mi
4:20 PM43 °FFog.10 mph100%30.04 "Hg2 mi
3:50 PM43 °FDrizzle. Partly sunny.9 mph100%30.04 "Hg2 mi
3:20 PM43 °FDrizzle. Partly sunny.13 mph93%30.04 "Hg2 mi
2:50 PM41 °FDrizzle. Partly sunny.14 mph100%30.07 "Hg3 mi
2:20 PM41 °FPartly sunny.14 mph100%30.07 "Hg4 mi
1:50 PM41 °FDrizzle. Partly sunny.15 mph93%30.07 "Hg3 mi
1:20 PM41 °FDrizzle. Partly sunny.10 mph93%30.09 "Hg3 mi
12:50 PM41 °FLight rain. Partly sunny.10 mph93%30.09 "Hg4 mi
12:20 PM41 °FLight rain. Partly sunny.13 mph93%30.12 "Hg4 mi
11:50 AM39 °FLight rain. Partly sunny.14 mph93%30.12 "Hg4 mi
11:20 AM39 °FLight rain. Broken clouds.13 mph93%30.15 "HgN/A
10:50 AM39 °FLight rain. Partly sunny.15 mph93%30.15 "HgN/A
10:20 AM39 °FLight rain. Scattered clouds.13 mph93%30.15 "HgN/A
9:50 AM39 °FLight rain. Broken clouds.13 mph93%30.15 "HgN/A
9:20 AM39 °FPartly sunny.13 mph93%30.15 "HgN/A
8:50 AM37 °FLight rain. Partly sunny.13 mph93%30.18 "HgN/A
8:20 AM37 °FPartly sunny.10 mph93%30.18 "HgN/A
Weather by CustomWeather, © 2016

See weather overviewHow to use our weather pages